Location: Le Castellard
(44.1862°N, 6.1301°E)
Time: 15:30:27
(UTC+00:00)

Cosmos 2058 Rocket - Pass Details

Date: 18 January 2020
Orbit: 611 x 639 km, 82.5° (Epoch: 25 February)

Event Time Altitude Azimuth Distance (km) Brightness Sun altitude
Rises 05:52:01 0° 181° (S) 2,899 6.7 -13.1°
Reaches altitude 10° 05:54:15 10° 179° (S) 1,992 5.9 -12.7°
Maximum altitude 05:58:38 70° 96° (E) 665 3.4 -12.0°
Drops below altitude 10° 06:03:01 10° 13° (NNE) 1,991 5.6 -11.2°
Sets 06:05:15 0° 11° (NNE) 2,898 6.4 -10.9°
